Sigfox identifier Datetime Temperature Humidity SNR
003D3BD0 2019-02-20 13:46:28 20.8 24 23
003D3BD0 2019-02-20 13:16:21 20.8 25 23
003D3BD0 2019-02-20 12:46:14 20.8 25 22.1
003D3BD0 2019-02-20 12:16:07 20.8 26 22.2
003D3BD0 2019-02-20 11:46:01 20.8 26 22.2
003D3BD0 2019-02-20 11:15:55 20.8 26 21
003D3BD0 2019-02-20 10:45:49 20.7 26 21.1
003D3BD0 2019-02-20 10:15:45 20.7 27 19.5
003D3BD0 2019-02-20 09:45:36 20.7 27 19.5
003D3BD0 2019-02-20 09:15:31 20.7 27 19.6
003D3BD0 2019-02-20 08:45:21 20.7 27 17.3
003D3BD0 2019-02-20 08:15:15 20.7 27 17.3
003D3BD0 2019-02-20 07:45:10 20.7 27 17.3
003D3BD0 2019-02-20 07:15:01 20.7 27 17.2
003D3BD0 2019-02-20 06:44:54 20.7 27 17.4
003D3BD0 2019-02-20 06:14:45 20.7 27 17.3
003D3BD0 2019-02-20 05:44:37 20.8 27 17.5
003D3BD0 2019-02-20 05:14:29 20.8 27 17.5
003D3BD0 2019-02-20 04:44:22 20.8 27 17.7
003D3BD0 2019-02-20 04:14:14 20.8 27 17.7
003D3BD0 2019-02-20 03:44:05 20.8 27 17.8
003D3BD0 2019-02-20 03:13:57 20.8 27 18
003D3BD0 2019-02-20 02:43:49 20.8 27 20
003D3BD0 2019-02-20 02:13:42 20.8 27 20
003D3BD0 2019-02-20 01:43:34 20.9 27 19.8
003D3BD0 2019-02-20 01:13:27 20.9 27 19.9
003D3BD0 2019-02-20 00:43:20 20.9 27 19.8
003D3BD0 2019-02-20 00:13:12 20.9 27 19.7
003D3BD0 2019-02-19 23:43:06 20.9 27 19.5
003D3BD0 2019-02-19 23:12:57 20.9 26 21
003D3BD0 2019-02-19 22:42:51 20.9 26 21.1
003D3BD0 2019-02-19 22:12:35 20.9 26 21
003D3BD0 2019-02-19 21:42:23 21.2 26 21
003D3BD0 2019-02-19 21:41:10 20.9 26 21
003D3BD0 2019-02-19 21:10:58 20.9 26 21
003D3BD0 2019-02-19 20:40:46 20.9 27 21
003D3BD0 2019-02-19 20:10:33 21 27 21.1
003D3BD0 2019-02-19 19:40:19 21 27 21.1
003D3BD0 2019-02-19 19:10:11 21 27 21
003D3BD0 2019-02-19 18:40:00 21 27 20.9
003D3BD0 2019-02-19 18:09:46 21 27 20.9
003D3BD0 2019-02-19 17:39:34 21 27 20.9
003D3BD0 2019-02-19 17:09:23 21 27 20.8
003D3BD0 2019-02-19 16:39:09 21 27 20.8
003D3BD0 2019-02-19 16:08:55 21 27 20.8
003D3BD0 2019-02-19 15:38:42 21 26 20.7
003D3BD0 2019-02-19 15:08:28 21 26 20.6
003D3BD0 2019-02-19 14:38:16 21 26 18.8
003D3BD0 2019-02-19 14:08:10 21 26 18.8
003D3BD0 2019-02-19 13:38:02 21 26 18.8
003D3BD0 2019-02-19 13:07:55 20.9 26 18.9
003D3BD0 2019-02-19 12:37:50 20.9 26 18.9
003D3BD0 2019-02-19 11:37:37 20.9 25 18.9
003D3BD0 2019-02-19 11:07:27 20.9 25 18.9
003D3BD0 2019-02-19 10:37:24 20.9 25 15.8
003D3BD0 2019-02-19 09:37:08 20.8 25 16
003D3BD0 2019-02-19 09:06:58 20.8 24 16
003D3BD0 2019-02-19 08:36:51 20.8 24 16.1
003D3BD0 2019-02-19 08:06:44 20.8 24 16.1
003D3BD0 2019-02-19 07:36:40 20.8 24 15.9
003D3BD0 2019-02-19 07:06:32 20.8 24 15.9
003D3BD0 2019-02-19 06:36:22 20.8 24 15.5
003D3BD0 2019-02-19 06:06:14 20.8 24 15.5
003D3BD0 2019-02-19 05:36:03 20.8 24 15.6
003D3BD0 2019-02-19 05:05:54 20.8 24 15.4
003D3BD0 2019-02-19 04:35:45 20.8 24 15.3
003D3BD0 2019-02-19 04:05:39 20.8 23 15.1
003D3BD0 2019-02-19 03:35:31 20.8 23 18.5
003D3BD0 2019-02-19 03:05:24 20.8 23 18.5
003D3BD0 2019-02-19 02:35:17 20.8 23 18.5
003D3BD0 2019-02-19 02:05:07 20.8 23 18.5
003D3BD0 2019-02-19 01:34:59 20.8 23 18.5
003D3BD0 2019-02-19 01:04:50 20.8 23 18.4
003D3BD0 2019-02-19 00:34:39 20.8 23 18.6
003D3BD0 2019-02-19 00:04:23 20.8 23 18.8
003D3BD0 2019-02-18 23:34:11 20.8 23 19
003D3BD0 2019-02-18 23:03:59 20.8 22 19.2
003D3BD0 2019-02-18 22:33:50 20.8 22 19.5
003D3BD0 2019-02-18 22:03:36 20.9 22 19.7
003D3BD0 2019-02-18 21:33:20 20.9 22 19.8
003D3BD0 2019-02-18 21:03:07 21.1 22 19.7
003D3BD0 2019-02-18 21:01:56 20.9 22 19.9
003D3BD0 2019-02-18 20:31:44 20.8 22 19.9
003D3BD0 2019-02-18 20:01:29 20.9 22 20.1
003D3BD0 2019-02-18 19:31:19 20.9 22 20.3
003D3BD0 2019-02-18 19:01:09 20.9 22 20.3
003D3BD0 2019-02-18 18:31:03 20.9 21 20.4
003D3BD0 2019-02-18 18:00:58 20.9 21 20.6
003D3BD0 2019-02-18 17:30:53 20.9 21 20.7
003D3BD0 2019-02-18 17:00:44 20.9 21 20.7
003D3BD0 2019-02-18 16:30:36 20.9 21 20.8
003D3BD0 2019-02-18 16:00:30 21 21 21
003D3BD0 2019-02-18 15:30:22 21 21 19.5
003D3BD0 2019-02-18 15:00:12 21 21 19.7
003D3BD0 2019-02-18 13:59:58 21 20 19.7
003D3BD0 2019-02-18 13:29:51 21.1 20 20
003D3BD0 2019-02-18 12:59:47 21.2 20 20.1
003D3BD0 2019-02-18 12:29:40 21.2 19 20.3
003D3BD0 2019-02-18 11:59:30 21.2 19 20.3
003D3BD0 2019-02-18 11:29:22 21.1 19 20.2
003D3BD0 2019-02-18 10:59:15 21.1 19 20.4
003D3BD0 2019-02-18 10:29:08 21.1 19 20.4
003D3BD0 2019-02-18 09:59:01 21 19 20.5
003D3BD0 2019-02-18 09:28:54 21 19 20.5
003D3BD0 2019-02-18 08:58:46 21 19 20.5
003D3BD0 2019-02-18 08:28:39 20.9 19 20.5
003D3BD0 2019-02-18 07:58:32 20.9 19 20.6
003D3BD0 2019-02-18 07:28:26 20.8 19 20.6
003D3BD0 2019-02-18 06:58:19 20.8 19 20.7
003D3BD0 2019-02-18 06:28:12 20.8 19 20.5
003D3BD0 2019-02-18 05:58:05 20.8 19 20.6
003D3BD0 2019-02-18 05:27:57 20.8 19 20.6
003D3BD0 2019-02-18 04:57:53 20.8 19 20.6
003D3BD0 2019-02-18 04:27:47 20.8 19 20.6
003D3BD0 2019-02-18 03:57:39 20.8 19 20.7
003D3BD0 2019-02-18 03:27:32 20.8 19 20.7
003D3BD0 2019-02-18 02:57:25 20.8 19 20.8
003D3BD0 2019-02-18 02:27:17 20.8 19 20.8
003D3BD0 2019-02-18 01:57:09 20.9 19 20.7
003D3BD0 2019-02-18 01:27:00 20.9 19 20.8
003D3BD0 2019-02-18 00:56:53 20.9 19 20.9
003D3BD0 2019-02-18 00:26:45 20.9 19 20.9
003D3BD0 2019-02-17 23:56:38 20.9 20 20.9
003D3BD0 2019-02-17 23:26:30 20.9 20 20.9
003D3BD0 2019-02-17 22:56:25 20.9 20 20.9
003D3BD0 2019-02-17 22:26:18 20.9 20 20.7
003D3BD0 2019-02-17 21:56:12 20.9 20 20.6
003D3BD0 2019-02-17 21:26:04 20.9 20 20.6
003D3BD0 2019-02-17 20:55:56 20.9 20 20.8
003D3BD0 2019-02-17 20:25:48 21.2 20 21.1
003D3BD0 2019-02-17 20:24:38 20.9 20 21.2
003D3BD0 2019-02-17 19:54:30 20.9 20 21.3
003D3BD0 2019-02-17 19:24:21 20.9 20 21.5
003D3BD0 2019-02-17 18:54:13 20.9 20 21.5
003D3BD0 2019-02-17 18:24:06 20.9 20 21.6
003D3BD0 2019-02-17 17:53:57 20.9 20 21.7
003D3BD0 2019-02-17 17:23:50 20.9 20 21.7
003D3BD0 2019-02-17 16:53:42 20.9 20 21.8
003D3BD0 2019-02-17 16:23:37 20.9 20 22
003D3BD0 2019-02-17 15:53:29 20.9 20 22
003D3BD0 2019-02-17 15:23:22 20.9 21 22.1
003D3BD0 2019-02-17 14:53:16 21 21 22.1
003D3BD0 2019-02-17 14:23:09 21 21 22.2
003D3BD0 2019-02-17 13:53:02 21 21 22.4
003D3BD0 2019-02-17 13:22:53 21 21 22.5
003D3BD0 2019-02-17 12:52:47 21 21 22.5
003D3BD0 2019-02-17 12:22:40 21 21 22.5
003D3BD0 2019-02-17 11:52:32 21 21 22.5
003D3BD0 2019-02-17 11:22:29 21 21 22.6
003D3BD0 2019-02-17 10:52:23 20.9 21 22.7
003D3BD0 2019-02-17 10:22:13 20.9 22 22.7
003D3BD0 2019-02-17 09:52:06 20.9 22 22.8
003D3BD0 2019-02-17 09:22:01 21 22 22.8
003D3BD0 2019-02-17 08:51:54 21 22 22.7
003D3BD0 2019-02-17 08:21:46 21 22 22.7
003D3BD0 2019-02-17 07:51:38 21 22 22.7
003D3BD0 2019-02-17 07:21:30 21 22 22.7
003D3BD0 2019-02-17 06:51:22 21 22 22.6
003D3BD0 2019-02-17 06:21:15 21 23 22.6
003D3BD0 2019-02-17 05:51:06 21 23 22.5
003D3BD0 2019-02-17 05:20:58 21 23 22.5
003D3BD0 2019-02-17 04:50:49 21 23 22.4
003D3BD0 2019-02-17 04:20:41 21 23 22.3
003D3BD0 2019-02-17 03:50:33 21 23 22.1
003D3BD0 2019-02-17 03:20:26 21 24 22.2
003D3BD0 2019-02-17 02:50:18 21 24 22.1
003D3BD0 2019-02-17 02:20:10 21 24 22
003D3BD0 2019-02-17 01:50:01 21 24 22
003D3BD0 2019-02-17 01:19:53 21 24 21.9
003D3BD0 2019-02-17 00:49:45 21 24 21.8
003D3BD0 2019-02-17 00:19:37 21 24 21.8
003D3BD0 2019-02-16 23:49:29 21 24 21.7
003D3BD0 2019-02-16 23:19:20 21 24 21.7
003D3BD0 2019-02-16 22:49:06 21.1 25 21.7
003D3BD0 2019-02-16 22:18:54 21.1 25 21.6
003D3BD0 2019-02-16 21:48:41 21.1 25 21.7
003D3BD0 2019-02-16 21:18:27 21.1 25 21.7
003D3BD0 2019-02-16 20:48:14 21.1 25 21.7
003D3BD0 2019-02-16 20:18:01 21.1 25 21.6
003D3BD0 2019-02-16 19:47:48 21.3 25 21.5
003D3BD0 2019-02-16 19:46:37 21 25 21.4
003D3BD0 2019-02-16 19:16:24 21 25 21.3
003D3BD0 2019-02-16 18:46:11 21 25 21.2
003D3BD0 2019-02-16 18:16:01 21 25 21
003D3BD0 2019-02-16 17:45:53 21.1 25 21.1
003D3BD0 2019-02-16 17:15:42 21.1 25 21.1
003D3BD0 2019-02-16 16:45:28 21.1 25 21.2
003D3BD0 2019-02-16 16:15:21 21.2 25 21.3
003D3BD0 2019-02-16 15:45:14 21.1 25 21.4
003D3BD0 2019-02-16 15:15:05 21.2 25 22.3
003D3BD0 2019-02-16 14:44:57 21.1 25 22.4
003D3BD0 2019-02-16 14:14:49 21.1 25 22.4
003D3BD0 2019-02-16 13:44:40 21.1 25 22.5
003D3BD0 2019-02-16 13:14:33 21.1 25 22.5
003D3BD0 2019-02-16 12:44:27 21.1 25 22.5
003D3BD0 2019-02-16 12:14:19 21.1 25 22.5
003D3BD0 2019-02-16 11:44:11 21.1 25 22.4
003D3BD0 2019-02-16 11:14:02 21 25 22.5
003D3BD0 2019-02-16 10:43:53 21 25 22.4
003D3BD0 2019-02-16 10:13:45 21.1 25 22.4
003D3BD0 2019-02-16 09:43:37 21 25 22.4
003D3BD0 2019-02-16 09:13:28 21.1 25 22.3
003D3BD0 2019-02-16 08:43:20 21.1 25 22.4
003D3BD0 2019-02-16 08:13:12 21.1 25 22.4
003D3BD0 2019-02-16 07:43:07 21.1 25 22.5
003D3BD0 2019-02-16 07:13:00 21.1 25 22.6
003D3BD0 2019-02-16 06:42:52 21.1 25 22.7
003D3BD0 2019-02-16 06:12:44 21.1 25 22.8
003D3BD0 2019-02-16 05:42:37 21.1 25 22.8
003D3BD0 2019-02-16 05:12:30 21.1 25 22.8
003D3BD0 2019-02-16 04:42:23 21.1 25 22.7
003D3BD0 2019-02-16 04:12:17 21.1 25 22.7
003D3BD0 2019-02-16 03:42:04 21.1 25 22.7
003D3BD0 2019-02-16 03:11:53 21.1 25 22.6
003D3BD0 2019-02-16 02:41:43 21.1 25 21.7
003D3BD0 2019-02-16 02:11:31 21.1 25 21.6
003D3BD0 2019-02-16 01:41:18 21.2 25 21.5
003D3BD0 2019-02-16 01:11:05 21.1 25 21.5
003D3BD0 2019-02-16 00:40:53 21.2 25 21.3
003D3BD0 2019-02-16 00:10:41 21.2 25 21.3
003D3BD0 2019-02-15 23:40:29 21.2 25 21.3
003D3BD0 2019-02-15 23:10:16 21.2 25 21.3
003D3BD0 2019-02-15 22:40:04 21.3 25 22.3
003D3BD0 2019-02-15 22:09:49 21.3 25 22.3
003D3BD0 2019-02-15 21:39:36 21.4 25 22.3
003D3BD0 2019-02-15 21:09:23 21.4 25 22.2
003D3BD0 2019-02-15 20:39:10 21.5 25 22.3
003D3BD0 2019-02-15 20:08:57 21.6 25 22.1
003D3BD0 2019-02-15 19:38:44 21.6 25 22.1
003D3BD0 2019-02-15 19:08:32 21.9 24 22.1
003D3BD0 2019-02-15 19:07:21 21.6 25 22.1
003D3BD0 2019-02-15 18:37:08 21.7 25 22
003D3BD0 2019-02-15 18:06:55 21.6 25 21.9
003D3BD0 2019-02-15 17:36:42 21.6 24 21.9
003D3BD0 2019-02-15 17:06:33 21.6 24 21.9
003D3BD0 2019-02-15 16:36:24 21.6 24 21.9
003D3BD0 2019-02-15 16:06:16 21.6 24 22
003D3BD0 2019-02-15 15:36:09 21.6 24 21.9
003D3BD0 2019-02-15 15:06:00 21.6 24 21.9
003D3BD0 2019-02-15 14:35:51 21.6 24 22
003D3BD0 2019-02-15 14:05:42 21.6 24 22.1
003D3BD0 2019-02-15 13:35:34 21.5 24 22.1
003D3BD0 2019-02-15 13:05:27 21.5 24 22.1
003D3BD0 2019-02-15 12:35:19 21.5 24 22.2
003D3BD0 2019-02-15 12:05:09 21.5 24 22.2
003D3BD0 2019-02-15 11:34:56 21.4 25 22.2
003D3BD0 2019-02-15 11:04:42 21.4 25 22.2
003D3BD0 2019-02-15 10:34:28 21.4 25 21.2
003D3BD0 2019-02-15 10:04:14 21.4 25 21.3
003D3BD0 2019-02-15 09:34:00 21.4 25 21.3
003D3BD0 2019-02-15 09:03:47 21.3 25 21.3
003D3BD0 2019-02-15 08:33:34 21.3 25 21.3
003D3BD0 2019-02-15 08:03:29 21.2 25 21.4
003D3BD0 2019-02-15 07:33:22 21.2 25 21.5
003D3BD0 2019-02-15 07:03:14 21.2 25 21.6
003D3BD0 2019-02-15 06:33:07 21.2 25 21.5
003D3BD0 2019-02-15 06:03:00 21.3 25 21.5
003D3BD0 2019-02-15 05:32:52 21.2 25 21.4
003D3BD0 2019-02-15 05:02:44 21.2 25 21.5
003D3BD0 2019-02-15 04:32:37 21.2 25 21.6
003D3BD0 2019-02-15 04:02:31 21.3 25 21.6
003D3BD0 2019-02-15 03:32:25 21.2 25 21.5
003D3BD0 2019-02-15 03:02:18 21.3 25 21.5
003D3BD0 2019-02-15 02:32:12 21.3 25 21.5
003D3BD0 2019-02-15 02:02:04 21.3 25 21.4
003D3BD0 2019-02-15 01:31:58 21.3 25 22.3
003D3BD0 2019-02-15 01:01:51 21.3 25 22.3
003D3BD0 2019-02-15 00:31:42 21.3 25 22.1
003D3BD0 2019-02-15 00:01:36 21.3 25 22
003D3BD0 2019-02-14 23:31:30 21.3 25 22
003D3BD0 2019-02-14 23:01:22 21.4 25 21.9
003D3BD0 2019-02-14 22:31:15 21.4 25 21.9
003D3BD0 2019-02-14 22:01:07 21.4 25 21.8
003D3BD0 2019-02-14 21:30:59 21.4 24 21.8
003D3BD0 2019-02-14 21:00:51 21.5 24 21.7
003D3BD0 2019-02-14 20:30:43 21.6 24 21.6
003D3BD0 2019-02-14 20:00:32 21.6 24 21.5
003D3BD0 2019-02-14 19:30:19 21.7 24 21.3
003D3BD0 2019-02-14 19:00:07 21.8 24 21.2
003D3BD0 2019-02-14 18:29:59 22 24 21
003D3BD0 2019-02-14 18:28:48 21.7 24 21.1
003D3BD0 2019-02-14 17:58:40 21.7 24 21
003D3BD0 2019-02-14 17:28:34 21.8 24 20.9
003D3BD0 2019-02-14 16:58:26 21.8 24 20.9
003D3BD0 2019-02-14 16:28:19 21.9 24 20.8
003D3BD0 2019-02-14 15:58:11 21.8 24 20.5
003D3BD0 2019-02-14 15:28:06 21.8 23 20.6
003D3BD0 2019-02-14 14:57:57 21.8 24 20.7
003D3BD0 2019-02-14 14:27:49 21.8 24 20.8
003D3BD0 2019-02-14 13:57:41 21.8 23 21
003D3BD0 2019-02-14 13:27:34 21.7 23 19.6
003D3BD0 2019-02-14 12:57:27 21.6 23 19.5
003D3BD0 2019-02-14 12:27:19 21.5 22 19.5
003D3BD0 2019-02-14 11:57:13 21.4 22 19.7
003D3BD0 2019-02-14 11:27:08 21.4 23 19.5
003D3BD0 2019-02-14 10:57:00 21.3 23 19.6
003D3BD0 2019-02-14 10:26:53 21.1 24 19.7
003D3BD0 2019-02-14 09:56:46 21 23 19.7
003D3BD0 2019-02-14 09:26:39 21 23 19.9
003D3BD0 2019-02-14 08:56:32 20.9 23 19.9
003D3BD0 2019-02-14 08:26:24 20.9 23 20.1
003D3BD0 2019-02-14 07:56:17 20.9 24 20.1
003D3BD0 2019-02-14 07:26:11 20.9 25 20.1
003D3BD0 2019-02-14 06:56:03 20.9 25 20.2
003D3BD0 2019-02-14 06:25:56 20.9 25 20.3
003D3BD0 2019-02-14 05:55:50 20.9 25 20.4
003D3BD0 2019-02-14 05:25:43 20.9 25 20.5
003D3BD0 2019-02-14 04:55:36 20.9 25 20.5
003D3BD0 2019-02-14 04:25:32 20.9 25 20.4
003D3BD0 2019-02-14 03:55:26 20.9 25 20.5
003D3BD0 2019-02-14 03:25:23 20.9 25 20.5
003D3BD0 2019-02-14 02:55:15 20.9 25 20.6
003D3BD0 2019-02-14 02:25:08 21 25 20.5
003D3BD0 2019-02-14 01:54:59 20.9 25 20.3
003D3BD0 2019-02-14 01:24:54 21 25 20.1
003D3BD0 2019-02-14 00:54:47 21 25 20.1
003D3BD0 2019-02-14 00:24:40 21 25 20.1
003D3BD0 2019-02-13 23:54:33 21 24 20.3
003D3BD0 2019-02-13 23:24:26 21 24 20.3
003D3BD0 2019-02-13 22:54:19 21 24 20.3
003D3BD0 2019-02-13 22:24:11 21.1 24 20.3
003D3BD0 2019-02-13 21:54:04 21.1 24 20.3
003D3BD0 2019-02-13 21:23:58 21.2 24 20.3
003D3BD0 2019-02-13 20:53:51 21.2 24 20.3
003D3BD0 2019-02-13 20:23:43 21.3 25 20.4
003D3BD0 2019-02-13 19:53:37 21.4 25 20.2
003D3BD0 2019-02-13 19:23:32 21.5 25 20.5
003D3BD0 2019-02-13 18:53:25 21.5 25 20.6
003D3BD0 2019-02-13 18:23:18 21.6 25 20.6
003D3BD0 2019-02-13 17:53:11 22 26 20.3
003D3BD0 2019-02-13 17:52:01 21.7 26 20.2
003D3BD0 2019-02-13 17:21:55 21.7 26 20.5
003D3BD0 2019-02-13 16:51:49 21.6 26 20.7
003D3BD0 2019-02-13 16:21:42 21.5 26 20.9
003D3BD0 2019-02-13 15:51:36 21.4 25 20.8
003D3BD0 2019-02-13 15:21:30 21.3 25 20.9
003D3BD0 2019-02-13 14:51:25 21.2 25 21
003D3BD0 2019-02-13 14:21:18 21.1 24 21.2
003D3BD0 2019-02-13 13:51:05 21.1 24 22.3
003D3BD0 2019-02-13 13:20:52 21.2 24 22.3
003D3BD0 2019-02-13 12:50:39 21.3 25 22.4
003D3BD0 2019-02-13 12:20:26 21.3 24 22.4
003D3BD0 2019-02-13 11:50:14 21.3 24 22.4
003D3BD0 2019-02-13 11:20:00 21.1 25 22.4
003D3BD0 2019-02-13 10:49:48 21 25 22.6
003D3BD0 2019-02-13 10:19:42 20.8 24 22.6
003D3BD0 2019-02-13 09:49:36 20.9 23 22.6
003D3BD0 2019-02-13 09:19:31 20.9 23 22.7
003D3BD0 2019-02-13 08:49:25 20.9 22 22.7
003D3BD0 2019-02-13 08:19:19 20.9 21 22.7
003D3BD0 2019-02-13 07:49:13 20.9 20 22.8
003D3BD0 2019-02-13 07:19:05 20.9 18 22.8
003D3BD0 2019-02-13 06:48:58 20.9 18 22.8
003D3BD0 2019-02-13 06:18:50 20.9 18 22.9
003D3BD0 2019-02-13 05:48:47 20.9 18 23.1
003D3BD0 2019-02-13 05:18:40 20.9 18 23.1
003D3BD0 2019-02-13 04:48:34 20.9 18 22.9
003D3BD0 2019-02-13 04:18:27 20.9 18 22.7
003D3BD0 2019-02-13 03:48:22 20.9 18 22.5
003D3BD0 2019-02-13 03:18:17 20.9 18 22.6
003D3BD0 2019-02-13 02:48:13 21 18 22.5
003D3BD0 2019-02-13 02:18:05 20.9 18 22.3
003D3BD0 2019-02-13 01:47:59 21 17 22.4
003D3BD0 2019-02-13 01:17:53 21 17 21.3
003D3BD0 2019-02-13 00:47:48 21 17 21.3
003D3BD0 2019-02-13 00:17:43 21 18 21.3
003D3BD0 2019-02-12 23:47:36 21 19 21.3
003D3BD0 2019-02-12 23:17:29 21 18 21.2
003D3BD0 2019-02-12 22:47:22 21 18 21.3
003D3BD0 2019-02-12 22:17:14 21.1 18 21.2
003D3BD0 2019-02-12 21:47:09 21.2 18 21.2
003D3BD0 2019-02-12 21:17:02 21.2 20 21.1
003D3BD0 2019-02-12 20:46:57 21.3 20 21.2
003D3BD0 2019-02-12 20:16:50 21.3 20 22.2
003D3BD0 2019-02-12 19:46:42 21.4 20 22
003D3BD0 2019-02-12 19:16:34 21.3 20 22
003D3BD0 2019-02-12 18:46:27 21.3 19 22
003D3BD0 2019-02-12 18:16:20 21.1 18 21.9
003D3BD0 2019-02-12 17:46:14 21.2 18 22.8
003D3BD0 2019-02-12 17:16:09 21.6 18 22.6
003D3BD0 2019-02-12 17:14:59 21.3 18 22.6
003D3BD0 2019-02-12 16:44:53 21.4 18 23.4
003D3BD0 2019-02-12 16:14:46 21.5 18 23.5
003D3BD0 2019-02-12 15:44:39 21.5 18 23.7
003D3BD0 2019-02-12 15:14:32 21.5 18 23.7
003D3BD0 2019-02-12 14:44:25 21.4 18 23.6
003D3BD0 2019-02-12 14:14:20 21.3 18 23.6
003D3BD0 2019-02-12 13:44:14 21.3 18 23.5
003D3BD0 2019-02-12 13:14:07 21.3 18 23.6
003D3BD0 2019-02-12 12:43:59 21.4 18 23.5
003D3BD0 2019-02-12 12:13:51 21.4 17 23.6
003D3BD0 2019-02-12 11:43:44 21.4 18 23.6
003D3BD0 2019-02-12 11:13:38 21.4 19 23.6
003D3BD0 2019-02-12 10:43:31 21.4 19 23.5
003D3BD0 2019-02-12 10:13:23 21.3 20 23.5
003D3BD0 2019-02-12 09:43:16 21.2 20 23.5
003D3BD0 2019-02-12 09:13:08 21.1 22 23.5
003D3BD0 2019-02-12 08:43:04 21 22 23.4
003D3BD0 2019-02-12 08:12:57 20.9 22 22.6
003D3BD0 2019-02-12 07:42:51 20.9 23 22.6
003D3BD0 2019-02-12 07:12:47 20.9 25 22.5
003D3BD0 2019-02-12 06:42:41 20.9 25 22.4
003D3BD0 2019-02-12 06:12:34 20.9 25 22.4
003D3BD0 2019-02-12 05:42:28 20.9 25 21.4
003D3BD0 2019-02-12 05:12:23 20.9 26 21.4
003D3BD0 2019-02-12 04:42:17 20.9 26 21.5
003D3BD0 2019-02-12 04:12:11 20.9 26 20.2
003D3BD0 2019-02-12 03:42:05 20.9 26 20.1
003D3BD0 2019-02-12 03:11:58 21 26 19.9
003D3BD0 2019-02-12 02:41:52 21 26 19.8
003D3BD0 2019-02-12 02:11:45 21 26 20
003D3BD0 2019-02-12 01:41:39 21 26 20.1
003D3BD0 2019-02-12 01:11:33 21 26 20.2
003D3BD0 2019-02-12 00:41:25 21 26 20.2
003D3BD0 2019-02-12 00:11:18 21 26 20.2
003D3BD0 2019-02-11 23:41:12 21.1 26 20
003D3BD0 2019-02-11 23:11:06 21.1 26 19.9
003D3BD0 2019-02-11 22:40:58 21.2 26 19.5
003D3BD0 2019-02-11 22:10:46 21.2 26 19.8
003D3BD0 2019-02-11 21:40:33 21.3 26 19.4
003D3BD0 2019-02-11 21:10:23 21.4 27 19.3
003D3BD0 2019-02-11 20:40:10 21.4 27 18.9
003D3BD0 2019-02-11 20:09:59 21.5 27 19.2
003D3BD0 2019-02-11 19:39:52 21.7 26 19.1
003D3BD0 2019-02-11 19:09:44 21.8 26 19.7
003D3BD0 2019-02-11 18:39:37 21.9 26 20.2
003D3BD0 2019-02-11 18:09:28 22.2 26 20.2
003D3BD0 2019-02-11 17:39:20 22.4 27 20.7
003D3BD0 2019-02-11 17:09:11 22.4 27 21.2
003D3BD0 2019-02-11 16:39:02 22.6 32 0